Stewart International Airport
KSWF : now visible

Airfield :











YOU CAN JOIN US ON...

 
LOGIN :

Register | Disclaimer

   EN    FR    IT 

 









Legend :    VFR   Marginal VFR   IFR   Intensive IFR   Very Intensive IFR
Visi :
Ceiling :
>= 8 km
>= 3000ft
5 to 8 km
1000 to 3000 ft
1500m to 5 km
500 to 1000 ft
800 to 1500m
200 to 500 ft
< 800m
< 200 ft
Symbols :   Thunderstorms  Fog  Heavy snow  Heavy precipitations  Wind > 20 kt






- Airport Elevation : 491 ft
- IATA code : SWF


KSWF - Stewart International

CURRENT METAR :
  • 121845Z VRB04KT 10SM OVC020 19/15 A2989

EXPIRED METARs :
  • 121745Z VRB04KT 10SM OVC020 19/15 A2989

TAF KSWF
Valid from the 12 at 19:00 until the 14 at 00:00 UTC


121903Z 1219/1324 VRB05KT P6SM BKN020
FM122000 VRB05KT P6SM BKN035
FM130000 VRB02KT P6SM SCT050
FM130900 00000KT P6SM SCT015 BKN040
FM131400 22006KT P6SM BKN035
FM132200 22009KT P6SM VCSH BKN040 AMD NOT SKED
KZBW FIR / North America



MET'MAP, your aeronautical weather chart ! - Copyright ORBIFLY December 2007 - Disclaimer

ORBIFLY MET'MAP TEAM :

Programming & Development : Alexandra Zaïnal
Concept & original design : Baudouin d'Aumeries
Assistance for programming : Marc-Olivier Méhu
Technical & hardware support : Manuel Goepfert

Contact : metmap@orbifly.com




SOURCES & CREDITS :

   NOAA       Earth
Advisory